Flag for Czech Republic Weather past 2 weeks in Ostrava, Czech Republic

Now
61 °F

Overcast.


Feels Like: 61 °F
Forecast: 51 / 62 °F
Wind: 3 mph from Northeast

Location: Ostrava / Mosnov

Current Time: May 25, 2015 at 4:02:03 PM

Latest Report: May 25, 2015 at 3:00 PM


Visibility: 9 mi

Pressure: 29.86 "Hg

Humidity: 76%

Dew point: 53 °F

Location of OstravaLocation

Historic Weather in Ostrava — Graph

°F

Ostrava temperature yesterday

Maximum temperature yesterday: 56 °F (at 3:00 PM)
Minimum temperature yesterday: 51 °F (at 6:00 AM)
Average temperature yesterday: 53 °F

Past Weeks' High & Low Weather Summary

 TemperatureHumidityPressure
High75 °F (May 19, 12:00 PM)99% (May 20, 7:00 AM)30.43 "Hg (May 20, 7:00 AM)
Low38 °F (May 15, 6:00 AM)34% (May 12, 3:00 PM)29.74 "Hg (May 19, 6:00 AM)
Average55 °F73%30.06 "Hg
* Reported May 10 3:00 PM — May 25 3:00 PM, Ostrava, Weather by CustomWeather, © 2015

Note: Actual official high and low records may vary slightly from our data, if they occured in-between our weather recording intervals... More about our weather records

Advertising

Ostrava weather history for previous 24 hours

 ConditionsComfort  
Time TempWeatherWind HumidityBarometerVisibility
3:00 PM
Mon, May 25
61 °FOvercast.3 mph76%29.86 "Hg9 mi
2:00 PM63 °FOvercast.5 mph67%29.88 "Hg12 mi
1:00 PM62 °FOvercast.5 mph74%29.90 "Hg12 mi
12:00 PM60 °FOvercast.6 mph77%29.91 "Hg7 mi
11:00 AM59 °FFog.5 mph81%29.93 "Hg6 mi
10:00 AM57 °FFog.6 mph82%29.94 "Hg4 mi
9:00 AM56 °FFog.5 mph86%29.95 "Hg4 mi
8:00 AM55 °FFog.5 mph87%29.96 "Hg4 mi
7:00 AM54 °FFog.3 mph91%29.97 "Hg4 mi
6:00 AM53 °FFog.3 mph92%29.98 "Hg4 mi
4:00 AM53 °FOvercast.5 mph92%29.99 "Hg6 mi
3:00 AM52 °FOvercast.3 mph94%30.00 "Hg6 mi
2:00 AM52 °FOvercast.5 mph94%30.02 "Hg6 mi
1:00 AM52 °FOvercast.3 mph97%30.03 "Hg6 mi
12:00 AM49 °FOvercast.3 mph97%30.04 "Hg6 mi
10:00 PM
Sun, May 24
53 °FOvercast.3 mph89%30.06 "Hg7 mi
9:00 PM54 °FOvercast.3 mph86%30.05 "Hg7 mi
8:00 PM55 °FOvercast.5 mph86%30.05 "Hg7 mi
7:00 PM56 °FOvercast.3 mph83%30.05 "Hg8 mi
6:00 PM55 °FOvercast.5 mph84%30.05 "Hg9 mi
5:00 PM56 °FOvercast.6 mph82%30.07 "Hg11 mi
4:00 PM56 °FOvercast.6 mph82%30.07 "Hg9 mi
Weather by CustomWeather, © 2015

See weather overviewHow to use our weather pages